Location: Bronschhofen
(47.4788°N, 9.0353°E)
Time: 21:22:08
(UTC+00:00)

Cosmos 1536 Rocket - Pass Details

Date: 20 May 2022
Orbit: 604 x 632 km, 82.5° (Epoch: 01 July)

Event Time Altitude Azimuth Distance (km) Brightness Sun altitude
Exits shadow 02:01:47 - 168° (SSE) 2,159 6.0 -13.5°
Reaches altitude 10° 02:02:11 10° 167° (SSE) 2,000 5.8 -13.4°
Maximum altitude 02:06:27 48° 94° (E) 822 4.4 -13.0°
Drops below altitude 10° 02:10:42 10° 20° (NNE) 2,001 7.4 -12.5°
Sets 02:12:59 0° 15° (NNE) 2,907 8.3 -12.2°
